ETD370 OBBI-OMAA

Flight info

Callsign ETD370
Flight time 0h 55m
Altitude 25000
Route BHR DCT ASTAD N318 KAPUM Z522 ALNEV Q415 UKILI
Aircraft A346/H-SDE2E3FGHIJ3J4J5M1RWXY/LB1D1

Departure

Time 2026-05-07 16:49
Airport Bahrain International Airport (OBBI)

Arrival

Time 2026-05-07 17:44
Airport Zayed International Airport (OMAA)
Time Latitude Longitude Altitude Speed Heading
2026-05-07 16:28 26.26855 50.63013 28 ft 0 kts 213°
2026-05-07 16:38 26.26860 50.63017 27 ft 4 kts 211°
2026-05-07 16:39 26.26883 50.63028 27 ft 4 kts 195°
2026-05-07 16:39 26.26905 50.63036 26 ft 3 kts 201°
2026-05-07 16:39 26.26927 50.63041 25 ft 4 kts 173°
2026-05-07 16:39 26.26945 50.63033 26 ft 4 kts 139°
2026-05-07 16:40 26.26962 50.63011 27 ft 4 kts 123°
2026-05-07 16:40 26.26969 50.62999 26 ft 0 kts 123°
2026-05-07 16:42 26.26968 50.62999 28 ft 1 kts 123°
2026-05-07 16:43 26.26960 50.63014 28 ft 4 kts 122°
2026-05-07 16:43 26.26952 50.63028 28 ft 1 kts 122°
2026-05-07 16:43 26.26942 50.63047 28 ft 5 kts 121°
2026-05-07 16:43 26.26919 50.63089 28 ft 8 kts 122°
2026-05-07 16:44 26.26923 50.63149 28 ft 9 kts 44°
2026-05-07 16:44 26.26958 50.63219 27 ft 12 kts 98°
2026-05-07 16:44 26.26910 50.63313 27 ft 16 kts 125°
2026-05-07 16:44 26.26839 50.63425 27 ft 19 kts 123°
2026-05-07 16:45 26.26764 50.63563 27 ft 22 kts 121°
2026-05-07 16:45 26.26673 50.63715 28 ft 25 kts 126°
2026-05-07 16:45 26.26580 50.63883 28 ft 27 kts 121°
2026-05-07 16:45 26.26477 50.64066 28 ft 29 kts 122°
2026-05-07 16:46 26.26363 50.64261 27 ft 31 kts 123°
2026-05-07 16:46 26.26242 50.64466 27 ft 32 kts 123°
2026-05-07 16:46 26.26118 50.64680 27 ft 33 kts 122°
2026-05-07 16:46 26.26022 50.64850 28 ft 21 kts 122°
2026-05-07 16:47 26.26036 50.64946 28 ft 6 kts 45°
2026-05-07 16:47 26.26037 50.64948 28 ft 0 kts 45°
2026-05-07 16:47 26.26043 50.64954 28 ft 2 kts 44°
2026-05-07 16:47 26.26060 50.64972 29 ft 5 kts 40°
2026-05-07 16:48 26.26093 50.64997 30 ft 7 kts 30°
2026-05-07 16:48 26.26139 50.64996 30 ft 8 kts 328°
2026-05-07 16:48 26.26155 50.64978 30 ft 1 kts 298°
2026-05-07 16:48 26.26261 50.64789 28 ft 66 kts 303°
2026-05-07 16:49 26.26547 50.64296 26 ft 121 kts 303°
2026-05-07 16:49 26.27126 50.63289 37 ft 178 kts 302°
2026-05-07 16:49 26.27808 50.62082 622 ft 187 kts 306°
2026-05-07 16:49 26.28563 50.60908 1395 ft 186 kts 315°
2026-05-07 16:50 26.29602 50.60114 2064 ft 179 kts 342°
2026-05-07 16:50 26.30802 50.59963 2655 ft 170 kts
2026-05-07 16:50 26.31822 50.60554 3153 ft 175 kts 48°
2026-05-07 16:50 26.32292 50.61866 3425 ft 196 kts 84°
2026-05-07 16:51 26.32222 50.63448 3742 ft 210 kts 92°
2026-05-07 16:51 26.32090 50.65128 4081 ft 225 kts 92°
2026-05-07 16:51 26.31952 50.66938 4365 ft 243 kts 91°
2026-05-07 16:51 26.31825 50.68869 4686 ft 262 kts 92°
2026-05-07 16:52 26.31691 50.70970 5074 ft 279 kts 92°
2026-05-07 16:52 26.31558 50.73168 5681 ft 286 kts 91°
2026-05-07 16:52 26.31429 50.75396 6460 ft 288 kts 92°
2026-05-07 16:52 26.31304 50.77631 7267 ft 289 kts 92°
2026-05-07 16:53 26.31175 50.79874 8068 ft 290 kts 93°
2026-05-07 16:53 26.31047 50.82123 8940 ft 291 kts 94°
2026-05-07 16:53 26.30918 50.84380 9786 ft 292 kts 94°
2026-05-07 16:53 26.30787 50.86662 10461 ft 299 kts 94°
2026-05-07 16:54 26.30648 50.89012 10860 ft 316 kts 95°
2026-05-07 16:54 26.30495 50.91531 11219 ft 334 kts 96°
2026-05-07 16:54 26.30086 50.94151 11554 ft 352 kts 105°
2026-05-07 16:54 26.29225 50.96776 11883 ft 369 kts 116°
2026-05-07 16:55 26.27991 50.99358 12270 ft 384 kts 120°
2026-05-07 16:55 26.26667 51.01965 12925 ft 389 kts 121°
2026-05-07 16:55 26.25321 51.04603 13707 ft 393 kts 121°
2026-05-07 16:55 26.23995 51.07229 14413 ft 396 kts 121°
2026-05-07 16:56 26.22644 51.09917 15123 ft 398 kts 121°
2026-05-07 16:56 26.21278 51.12628 15777 ft 403 kts 120°
2026-05-07 16:56 26.18496 51.18155 17051 ft 413 kts 121°
2026-05-07 16:57 26.17082 51.20965 17732 ft 417 kts 121°
2026-05-07 16:57 26.15653 51.23796 18344 ft 421 kts 121°
2026-05-07 16:57 26.14209 51.26657 18870 ft 426 kts 121°
2026-05-07 16:57 26.12749 51.29553 19404 ft 431 kts 122°
2026-05-07 16:58 26.11292 51.32436 19950 ft 435 kts 121°
2026-05-07 16:58 26.09799 51.35388 20478 ft 440 kts 121°
2026-05-07 16:58 26.08287 51.38378 20982 ft 445 kts 121°
2026-05-07 16:58 26.06763 51.41394 21536 ft 449 kts 121°
2026-05-07 16:59 26.05225 51.44432 22078 ft 453 kts 121°
2026-05-07 16:59 26.03668 51.47501 22602 ft 457 kts 121°
2026-05-07 16:59 26.02099 51.50599 23115 ft 461 kts 120°
2026-05-07 16:59 26.00537 51.53680 23567 ft 466 kts 121°
2026-05-07 17:00 25.98935 51.56834 23973 ft 470 kts 121°
2026-05-07 17:00 25.97320 51.60012 24413 ft 474 kts 121°
2026-05-07 17:00 25.95690 51.63221 24743 ft 477 kts 121°
2026-05-07 17:00 25.94053 51.66439 24835 ft 478 kts 121°
2026-05-07 17:01 25.92415 51.69653 24842 ft 477 kts 122°
2026-05-07 17:01 25.90781 51.72857 24841 ft 476 kts 121°
2026-05-07 17:01 25.89179 51.76076 24838 ft 476 kts 121°
2026-05-07 17:01 25.87622 51.79270 24838 ft 476 kts 120°
2026-05-07 17:02 25.86049 51.82505 24838 ft 476 kts 120°
2026-05-07 17:02 25.84476 51.85736 24823 ft 476 kts 120°
2026-05-07 17:02 25.82994 51.89031 24835 ft 477 kts 117°
2026-05-07 17:02 25.81586 51.92366 24835 ft 477 kts 117°
2026-05-07 17:03 25.80185 51.95706 24835 ft 477 kts 117°
2026-05-07 17:03 25.78785 51.99045 24828 ft 477 kts 117°
2026-05-07 17:03 25.77385 52.02384 24833 ft 478 kts 117°
2026-05-07 17:03 25.75996 52.05683 24832 ft 478 kts 117°
2026-05-07 17:04 25.74585 52.09028 24834 ft 478 kts 117°
2026-05-07 17:04 25.73176 52.12371 24835 ft 478 kts 117°
2026-05-07 17:04 25.71764 52.15716 24835 ft 478 kts 117°
2026-05-07 17:04 25.70353 52.19058 24836 ft 478 kts 117°
2026-05-07 17:05 25.68938 52.22405 24835 ft 478 kts 117°
2026-05-07 17:05 25.67525 52.25743 24836 ft 478 kts 117°
2026-05-07 17:05 25.66109 52.29086 24830 ft 478 kts 117°
2026-05-07 17:05 25.64711 52.32380 24831 ft 479 kts 117°
2026-05-07 17:06 25.63292 52.35726 24834 ft 479 kts 117°
2026-05-07 17:06 25.61840 52.39052 24832 ft 478 kts 119°
2026-05-07 17:06 25.60261 52.42295 24833 ft 478 kts 121°
2026-05-07 17:06 25.58644 52.45514 24833 ft 478 kts 121°
2026-05-07 17:07 25.57019 52.48729 24833 ft 478 kts 121°
2026-05-07 17:07 25.55393 52.51941 24833 ft 478 kts 121°
2026-05-07 17:07 25.53788 52.55111 24831 ft 478 kts 121°
2026-05-07 17:07 25.52158 52.58330 24832 ft 479 kts 121°
2026-05-07 17:08 25.50529 52.61547 24833 ft 479 kts 121°
2026-05-07 17:08 25.48898 52.64767 24827 ft 479 kts 121°
2026-05-07 17:08 25.47267 52.67984 24828 ft 479 kts 121°
2026-05-07 17:08 25.45637 52.71198 24829 ft 479 kts 121°
2026-05-07 17:09 25.43976 52.74397 24828 ft 478 kts 123°
2026-05-07 17:09 25.42252 52.77550 24823 ft 478 kts 123°
2026-05-07 17:09 25.40534 52.80643 24825 ft 478 kts 123°
2026-05-07 17:09 25.38780 52.83778 24826 ft 478 kts 124°
2026-05-07 17:10 25.37025 52.86911 24827 ft 478 kts 123°
2026-05-07 17:10 25.35276 52.90040 24827 ft 478 kts 123°
2026-05-07 17:10 25.33528 52.93175 24827 ft 478 kts 123°
2026-05-07 17:10 25.31871 52.96378 24826 ft 480 kts 120°
2026-05-07 17:11 25.30371 52.99679 24828 ft 480 kts 117°
2026-05-07 17:11 25.29004 53.02987 24823 ft 481 kts 116°
2026-05-07 17:11 25.27625 53.06364 24824 ft 481 kts 116°
2026-05-07 17:11 25.26251 53.09738 24824 ft 481 kts 116°
2026-05-07 17:12 25.24875 53.13111 24827 ft 481 kts 116°
2026-05-07 17:12 25.23496 53.16480 24823 ft 481 kts 116°
2026-05-07 17:12 25.22114 53.19846 24822 ft 481 kts 116°
2026-05-07 17:12 25.20730 53.23214 24822 ft 481 kts 116°
2026-05-07 17:13 25.19344 53.26530 24814 ft 481 kts 118°
2026-05-07 17:13 25.17749 53.29764 24603 ft 478 kts 123°
2026-05-07 17:13 25.15922 53.32812 24365 ft 474 kts 127°
2026-05-07 17:13 25.13899 53.35670 24060 ft 471 kts 131°
2026-05-07 17:14 25.11816 53.38454 23768 ft 468 kts 131°
2026-05-07 17:14 25.09735 53.41210 23374 ft 465 kts 131°
2026-05-07 17:14 25.07674 53.43939 22877 ft 461 kts 131°
2026-05-07 17:14 25.05638 53.46646 22392 ft 456 kts 132°
2026-05-07 17:15 25.03648 53.49300 21947 ft 452 kts 131°
2026-05-07 17:15 25.01651 53.51957 21492 ft 448 kts 131°
2026-05-07 17:15 24.99672 53.54585 21035 ft 443 kts 132°
2026-05-07 17:15 24.97516 53.56982 20572 ft 438 kts 140°
2026-05-07 17:16 24.95084 53.58970 20117 ft 433 kts 148°
2026-05-07 17:16 24.92458 53.60554 19653 ft 428 kts 154°
2026-05-07 17:16 24.89795 53.61981 19210 ft 423 kts 155°
2026-05-07 17:16 24.87150 53.63372 18756 ft 419 kts 155°
2026-05-07 17:17 24.84567 53.64734 18330 ft 416 kts 154°
2026-05-07 17:17 24.81972 53.66111 17857 ft 411 kts 154°
2026-05-07 17:17 24.79432 53.67509 17446 ft 406 kts 150°
2026-05-07 17:17 24.77177 53.69351 17010 ft 403 kts 137°
2026-05-07 17:18 24.75348 53.71677 16535 ft 402 kts 126°
2026-05-07 17:18 24.73915 53.74311 16088 ft 398 kts 121°
2026-05-07 17:18 24.72593 53.76931 15906 ft 385 kts 120°
2026-05-07 17:18 24.71321 53.79466 15713 ft 372 kts 120°
2026-05-07 17:19 24.70082 53.81921 15578 ft 360 kts 120°
2026-05-07 17:19 24.68885 53.84278 15478 ft 346 kts 121°
2026-05-07 17:19 24.67741 53.86529 15332 ft 335 kts 121°
2026-05-07 17:19 24.66623 53.88728 15206 ft 323 kts 121°
2026-05-07 17:20 24.65542 53.90843 15138 ft 311 kts 121°
2026-05-07 17:20 24.64530 53.92892 15040 ft 301 kts 116°
2026-05-07 17:20 24.63805 53.95041 14981 ft 302 kts 107°
2026-05-07 17:20 24.63402 53.97368 14996 ft 314 kts 100°
2026-05-07 17:21 24.63124 53.99759 14999 ft 316 kts 99°
2026-05-07 17:21 24.62859 54.02161 14998 ft 317 kts 98°
2026-05-07 17:21 24.62603 54.04537 15001 ft 316 kts 98°
2026-05-07 17:21 24.62341 54.06939 15003 ft 316 kts 99°
2026-05-07 17:22 24.62072 54.09340 15004 ft 316 kts 98°
2026-05-07 17:22 24.61801 54.11742 15002 ft 316 kts 98°
2026-05-07 17:22 24.61532 54.14146 14996 ft 316 kts 99°
2026-05-07 17:22 24.61259 54.16543 14996 ft 316 kts 98°
2026-05-07 17:23 24.60986 54.18943 14996 ft 316 kts 98°
2026-05-07 17:23 24.60713 54.21347 14999 ft 316 kts 98°
2026-05-07 17:23 24.60445 54.23715 14998 ft 316 kts 98°
2026-05-07 17:23 24.60167 54.26115 14996 ft 316 kts 98°
2026-05-07 17:24 24.59892 54.28515 14999 ft 317 kts 99°
2026-05-07 17:24 24.59618 54.30922 14969 ft 317 kts 98°
2026-05-07 17:24 24.59307 54.33328 14596 ft 318 kts 102°
2026-05-07 17:24 24.58857 54.35699 14227 ft 316 kts 103°
2026-05-07 17:25 24.58381 54.38054 13873 ft 314 kts 104°
2026-05-07 17:25 24.57902 54.40396 13526 ft 312 kts 104°
2026-05-07 17:25 24.57431 54.42687 13155 ft 310 kts 104°
2026-05-07 17:25 24.56959 54.44987 12812 ft 307 kts 104°
2026-05-07 17:26 24.56497 54.47272 12480 ft 304 kts 104°
2026-05-07 17:26 24.56046 54.49531 12170 ft 301 kts 104°
2026-05-07 17:26 24.55595 54.51767 11844 ft 298 kts 103°
2026-05-07 17:26 24.55149 54.53987 11522 ft 296 kts 104°
2026-05-07 17:27 24.54708 54.56190 11215 ft 294 kts 103°
2026-05-07 17:27 24.54267 54.58375 10902 ft 292 kts 103°
2026-05-07 17:27 24.53834 54.60512 10593 ft 290 kts 103°
2026-05-07 17:27 24.53401 54.62672 10286 ft 288 kts 104°
2026-05-07 17:28 24.52969 54.64821 9982 ft 287 kts 104°
2026-05-07 17:28 24.52535 54.66955 9674 ft 286 kts 104°
2026-05-07 17:28 24.52102 54.69087 9343 ft 284 kts 104°
2026-05-07 17:28 24.51533 54.71156 9014 ft 282 kts 115°
2026-05-07 17:29 24.50576 54.72999 8854 ft 274 kts 128°
2026-05-07 17:29 24.49423 54.74663 8682 ft 274 kts 130°
2026-05-07 17:29 24.48238 54.76300 8406 ft 273 kts 129°
2026-05-07 17:29 24.47077 54.77911 8097 ft 272 kts 129°
2026-05-07 17:30 24.45919 54.79531 7956 ft 264 kts 129°
2026-05-07 17:30 24.44810 54.81092 7906 ft 255 kts 129°
2026-05-07 17:30 24.43721 54.82621 7716 ft 254 kts 129°
2026-05-07 17:30 24.42631 54.84149 7436 ft 253 kts 129°
2026-05-07 17:31 24.41545 54.85670 7169 ft 253 kts 128°
2026-05-07 17:31 24.40463 54.87187 6891 ft 252 kts 128°
2026-05-07 17:31 24.39382 54.88702 6618 ft 251 kts 128°
2026-05-07 17:31 24.38302 54.90218 6352 ft 257 kts 128°
2026-05-07 17:32 24.37205 54.91759 6066 ft 259 kts 128°
2026-05-07 17:32 24.36101 54.93309 5784 ft 257 kts 128°
2026-05-07 17:32 24.35004 54.94852 5497 ft 255 kts 129°
2026-05-07 17:32 24.34285 54.95859 5389 ft 250 kts 129°
2026-05-07 17:33 24.32888 54.97814 5288 ft 238 kts 129°
2026-05-07 17:33 24.31870 54.99237 5180 ft 237 kts 129°
2026-05-07 17:33 24.30853 55.00663 5058 ft 237 kts 129°
2026-05-07 17:33 24.29832 55.02089 4942 ft 239 kts 129°
2026-05-07 17:34 24.28816 55.03513 4830 ft 240 kts 129°
2026-05-07 17:34 24.27787 55.04949 4708 ft 238 kts 129°
2026-05-07 17:34 24.26760 55.06379 4595 ft 238 kts 132°
2026-05-07 17:34 24.25447 55.07421 4438 ft 234 kts 167°
2026-05-07 17:35 24.23861 55.07390 4343 ft 230 kts 202°
2026-05-07 17:35 24.22515 55.06474 4254 ft 229 kts 219°
2026-05-07 17:35 24.21278 55.05381 4108 ft 227 kts 220°
2026-05-07 17:35 24.20114 55.04261 4001 ft 225 kts 234°
2026-05-07 17:36 24.19563 55.02687 4005 ft 225 kts 269°
2026-05-07 17:36 24.19935 55.01039 4004 ft 226 kts 302°
2026-05-07 17:36 24.20893 54.99665 4011 ft 227 kts 307°
2026-05-07 17:36 24.21871 54.98304 4014 ft 228 kts 304°
2026-05-07 17:37 24.22731 54.96846 4011 ft 227 kts 300°
2026-05-07 17:37 24.23542 54.95356 3999 ft 228 kts 299°
2026-05-07 17:37 24.24343 54.93857 3998 ft 228 kts 297°
2026-05-07 17:37 24.24959 54.92277 4006 ft 226 kts 288°
2026-05-07 17:38 24.25526 54.90668 3997 ft 226 kts 294°
2026-05-07 17:38 24.26309 54.89167 4000 ft 227 kts 303°
2026-05-07 17:38 24.27237 54.87801 4006 ft 216 kts 307°
2026-05-07 17:38 24.28143 54.86562 4033 ft 199 kts 307°
2026-05-07 17:39 24.28994 54.85395 3981 ft 195 kts 307°
2026-05-07 17:39 24.29832 54.84229 3746 ft 194 kts 307°
2026-05-07 17:39 24.30659 54.83066 3512 ft 192 kts 306°
2026-05-07 17:39 24.31458 54.81932 3266 ft 186 kts 307°
2026-05-07 17:40 24.32221 54.80846 3018 ft 173 kts 307°
2026-05-07 17:40 24.32927 54.79842 2801 ft 160 kts 307°
2026-05-07 17:40 24.33590 54.78901 2606 ft 153 kts 306°
2026-05-07 17:40 24.34235 54.77980 2447 ft 151 kts 306°
2026-05-07 17:41 24.34875 54.77068 2272 ft 150 kts 306°
2026-05-07 17:41 24.35511 54.76160 2085 ft 150 kts 307°
2026-05-07 17:41 24.36140 54.75269 1913 ft 149 kts 306°
2026-05-07 17:41 24.36776 54.74366 1734 ft 149 kts 307°
2026-05-07 17:42 24.37411 54.73467 1544 ft 149 kts 308°
2026-05-07 17:42 24.38044 54.72571 1348 ft 148 kts 308°
2026-05-07 17:42 24.38680 54.71682 1121 ft 147 kts 310°
2026-05-07 17:42 24.39305 54.70795 951 ft 147 kts 309°
2026-05-07 17:43 24.39916 54.69899 774 ft 146 kts 309°
2026-05-07 17:43 24.40525 54.69029 602 ft 145 kts 310°
2026-05-07 17:43 24.41146 54.68155 424 ft 145 kts 310°
2026-05-07 17:43 24.41773 54.67268 271 ft 148 kts 310°
2026-05-07 17:44 24.42405 54.66382 104 ft 147 kts 309°
2026-05-07 17:44 24.42957 54.65609 89 ft 99 kts 308°
2026-05-07 17:44 24.43274 54.65165 92 ft 51 kts 308°
2026-05-07 17:44 24.43435 54.64962 91 ft 31 kts 323°
2026-05-07 17:45 24.43585 54.64881 89 ft 15 kts 339°
2026-05-07 17:45 24.43661 54.64849 87 ft 10 kts 338°
2026-05-07 17:45 24.43732 54.64808 88 ft 12 kts 323°
2026-05-07 17:45 24.43791 54.64739 88 ft 14 kts 306°
2026-05-07 17:46 24.43860 54.64641 89 ft 18 kts 309°
2026-05-07 17:46 24.43945 54.64526 90 ft 21 kts 308°
2026-05-07 17:46 24.44018 54.64422 89 ft 11 kts 307°
2026-05-07 17:46 24.44065 54.64353 89 ft 9 kts 307°
2026-05-07 17:47 24.44105 54.64314 88 ft 9 kts 342°
2026-05-07 17:47 24.44171 54.64340 89 ft 12 kts 38°
2026-05-07 17:47 24.44245 54.64401 88 ft 11 kts 28°
2026-05-07 17:47 24.44320 54.64383 87 ft 13 kts 310°
2026-05-07 17:48 24.44379 54.64300 87 ft 10 kts 310°
2026-05-07 17:48 24.44415 54.64266 89 ft 8 kts 329°
2026-05-07 17:48 24.44474 54.64235 88 ft 11 kts 335°
2026-05-07 17:48 24.44528 54.64209 89 ft 6 kts 338°
2026-05-07 17:49 24.44547 54.64208 87 ft 3 kts 25°
2026-05-07 17:49 24.44568 54.64234 88 ft 6 kts 60°
2026-05-07 17:49 24.44584 54.64275 87 ft 4 kts 69°
2026-05-07 17:49 24.44588 54.64289 88 ft 0 kts 69°
2026-05-07 17:50 24.44590 54.64294 88 ft 0 kts 69°
2026-05-07 17:50 24.44591 54.64295 89 ft 0 kts 69°